This is the latest recevied weather packets stored in our database for station/object KF4ERV-4. If no packets are shown the sender has not sent any weather packets the latest 1 day(s).
| Time | Temp. | Humidity | Pressure | Rain* | Wind** | Luminosity | Snow |
|---|---|---|---|---|---|---|---|
| 1778019602 | 17.78° C | 88% | 1008 hPa | 0 mm | - | - | - |
| 1778019593 | 17.78° C | 90% | 1008 hPa | 1.52 mm | - | - | - |
| 1778019471 | 17.78° C | 89% | 1008 hPa | 0.51 mm | - | - | - |
| 1778019296 | 17.78° C | 89% | 1008 hPa | 0.51 mm | - | - | - |
| 1778019184 | 17.78° C | 89% | 1008 hPa | 0.25 mm | - | - | - |
| 1778018021 | 17.78° C | 85% | 1008 hPa | 0.25 mm | - | - | - |
| 1778017492 | 17.78° C | 84% | 1008 hPa | 0.25 mm | - | - | - |
| 1778016590 | 17.22° C | 80% | 1008 hPa | 0.25 mm | - | - | - |
| 1778016571 | 17.22° C | 79% | 1008 hPa | 0.25 mm | - | - | - |
| 1778015699 | 17.22° C | 77% | 1008 hPa | 0.25 mm | - | - | - |
| 1778015391 | 17.22° C | 76% | 1008 hPa | 0.25 mm | - | - | - |
| 1778014541 | 17.22° C | 72% | 1008.9 hPa | 0.25 mm | - | - | - |
| 1778014379 | 17.22° C | 70% | 1009 hPa | 0 mm | - | - | - |
| 1778014251 | 17.22° C | 70% | 1009 hPa | 0 mm | - | - | - |
| 1778013673 | 17.22° C | 68% | 1009 hPa | 0 mm | - | - | - |
| 1778013598 | 17.22° C | 68% | 1009 hPa | 0 mm | - | - | - |
| 1778013091 | 17.22° C | 64% | 1009 hPa | 0.25 mm | - | - | - |
| 1778012804 | 17.22° C | 62% | 1009 hPa | 0.51 mm | - | - | - |
| 1778012092 | 17.22° C | 57% | 1009 hPa | 0.76 mm | - | - | - |
| 1778011931 | 17.22° C | 53% | 1009 hPa | 1.02 mm | - | - | - |
| 1778011497 | 17.22° C | 49% | 1009 hPa | 1.02 mm | - | - | - |
| 1778011351 | 17.22° C | 45% | 1009 hPa | 1.02 mm | - | - | - |
| 1778011189 | 17.22° C | 45% | 1009 hPa | 1.02 mm | - | - | - |
* Rain latest hour (hover to see other rain measurements)
** Current wind speed in m/s (hover to see current wind gust speed)